Regional Weather Roundup
Issued by NWS

Home | Current Version | Previous Version | Text Only | Print | Product List | Glossary Off
Versions: 1 2 3 4 5 6 7 8 9 10 11 12 13 14 15 16 17 18 19 20 21 22 23 24 25 26 27 28 29 30 31 32 33 34 35 36 37 38 39 40 41 42 43 44 45 46 47 48 49 50

633
ASUS43 KLMK 251102
RWRKY
KENTUCKY REGIONAL WEATHER ROUNDUP
NATIONAL WEATHER SERVICE LOUISVILLE KY
700 AM EDT WED APR 25 2018

NOTE "FAIR" INDICATES FEW OR NO CLOUDS BELOW 12,000 FEET
WITH NO SIGNIFICANT WEATHER AND/OR OBSTRUCTIONS TO VISIBILITY.

KYZ001>023-026-027-061>063-070>075-251200-
WESTERN AND SOUTH CENTRAL KENTUCKY

CITY           SKY/WX    TMP DP  RH WIND       PRES   REMARKS
PADUCAH        FAIR      50  48  93 W3        29.98S FOG
HENDERSON      FOG       45  45 100 W3        30.00R VSB 1/4
OWENSBORO      FOG       53  52  96 CALM      29.98R VSB 1/8
HOPKINSVILLE   CLOUDY    50  50 100 W3        29.98R FOG
BOWLING GREEN  CLOUDY    56  53  90 N5        29.96R
GLASGOW        NOT AVBL
$$

KYZ024-025-028>034-038-045-046-053-251200-
NORTH CENTRAL KENTUCKY

CITY           SKY/WX    TMP DP  RH WIND       PRES   REMARKS
LOUISVILLE/SDF CLOUDY    56  51  84 NW10      29.93R
LOUISVILLE/LOU CLOUDY    56  53  90 NW5       29.93R
FORT KNOX      CLOUDY   N/A N/A N/A W5        29.95S
$$

KYZ035>037-039>044-047>052-055>060-089>105-251200-
NORTHEAST KENTUCKY

CITY           SKY/WX    TMP DP  RH WIND       PRES   REMARKS
LEXINGTON      MOCLDY    53  50  89 NW8       29.90R
COVINGTON      CLOUDY    53  50  89 NW9       29.90R
FRANKFORT      CLOUDY    54  50  86 NW5       29.90R
$$

KYZ054-064>069-076>088-106>120-251200-
SOUTHEAST KENTUCKY

CITY           SKY/WX    TMP DP  RH WIND       PRES   REMARKS
JACKSON        CLOUDY    53  50  89 CALM      29.87R
LONDON         CLOUDY    53  52  96 NW5       29.89R
SOMERSET       NOT AVBL
MIDDLESBORO    CLOUDY    54  53  97 NW3       29.89R
MONTICELLO     CLOUDY    54  52  93 NW8       29.94R
$$





USA.gov is the U.S. government's official web portal to all federal, state and local government web resources and services.